Wind_Speed
26 23 22 22 22 22 23 24 24 25 26 26 27 28 28 28 27 28 28 27 27 27 27 27 27 27 28 28 27 28 28 27 28 28 28 29 30 30 30 29 28 27 27 26
28 27 27 27 26 25 26 25 25 26 28 28 32 32 31 31 31 32 31 30 30 30 29 29 29 29 29 31 30 30 30 30 30 30 30 31 31 31 31 31 29 28 28 28
30 29 29 29 26 25 27 28 28 29 30 30 32 33 33 33 34 34 34 33 33 33 32 32 32 32 31 31 31 31 31 32 32 32 33 32 33 33 32 31 30 28 28 29
31 30 32 29 26 26 28 29 28 29 31 32 33 34 36 36 36 36 35 35 35 35 35 34 33 33 33 32 32 32 32 33 34 34 35 34 34 33 33 33 32 31 30 30
31 31 31 29 27 27 27 30 30 32 33 33 34 36 38 39 38 38 37 36 36 36 36 35 35 35 35 34 33 33 34 34 35 36 36 36 35 35 35 34 34 33 32 32
32 32 32 29 28 30 31 31 33 35 36 35 34 35 38 39 39 39 37 37 36 36 36 36 36 36 36 35 35 36 36 36 36 37 37 37 37 37 37 37 36 34 33 33
33 33 33 32 32 32 33 35 36 36 37 36 36 37 39 40 39 39 38 38 38 37 36 36 36 36 36 36 37 37 37 37 36 36 37 37 37 38 38 37 36 35 35 35
32 33 33 35 35 35 36 37 37 38 39 39 39 39 40 41 42 41 40 38 37 37 37 37 37 36 36 37 37 37 37 36 36 37 36 36 37 37 37 37 36 36 36 36
33 34 36 37 38 38 38 38 38 39 40 40 40 40 42 42 42 42 41 37 36 37 37 37 38 38 37 37 37 38 37 38 38 38 37 37 38 37 37 37 37 37 36 36
36 37 37 38 39 40 40 40 40 40 41 41 42 42 42 42 42 41 41 39 38 38 38 38 38 38 38 38 38 38 38 38 38 38 38 38 39 39 38 38 38 37 37 38
37 37 38 39 41 41 41 41 41 42 43 43 43 43 42 42 42 42 42 41 39 38 38 37 37 38 39 39 38 38 38 38 38 38 38 38 37 37 38 38 38 38 38 38
39 38 39 39 39 40 41 41 41 42 43 42 42 42 42 41 42 42 42 42 41 40 39 38 38 39 39 38 37 37 37 37 37 37 37 38 37 37 37 37 37 37 37 37
39 38 39 40 39 39 40 42 41 41 41 41 40 40 40 39 39 40 41 41 39 38 39 38 38 38 38 37 37 37 37 37 37 37 36 36 37 37 37 36 36 36 36 37
37 38 39 38 38 38 39 40 39 39 39 39 39 38 38 39 39 39 40 39 38 38 38 38 38 38 37 37 37 37 36 36 35 35 35 36 36 36 36 37 37 36 36 37
35 36 37 38 38 38 37 37 37 36 36 35 35 36 36 36 37 38 38 38 37 37 38 37 37 37 36 36 36 36 36 35 35 35 34 34 34 35 36 36 37 37 36 36
34 35 35 35 35 35 35 35 34 33 33 33 33 34 35 35 35 36 36 36 36 35 35 35 35 35 35 35 35 35 35 35 35 35 35 34 33 34 34 35 35 36 36 36
32 32 31 31 31 31 31 31 31 31 32 32 32 32 33 33 33 33 33 34 35 34 34 34 34 34 34 34 34 33 33 33 34 33 33 34 33 34 34 35 36 36 36 36
27 28 28 28 28 28 28 28 29 29 30 30 30 30 30 31 32 32 32 32 33 33 33 32 33 33 32 32 33 32 31 31 31 31 32 32 31 31 32 32 32 32 32 32
22 24 25 25 25 26 26 26 27 27 27 28 28 29 30 30 30 31 32 32 32 32 32 32 31 31 31 32 32 31 31 30 30 30 30 29 30 30 31 31 31 30 31 31
20 21 22 22 23 23 23 23 24 25 25 26 27 27 28 29 28 28 29 30 29 30 30 31 31 31 31 31 31 31 30 30 30 30 30 30 30 30 30 30 30 30 30 30
17 18 18 19 20 20 21 21 21 22 23 23 24 25 26 27 27 27 28 28 28 28 29 29 29 29 29 29 29 30 30 30 30 30 30 30 30 30 30 29 29 29 29 29
14 15 15 16 17 18 18 18 19 20 21 22 22 23 23 24 25 25 25 26 26 26 27 27 28 28 28 28 29 29 29 29 28 28 29 29 29 29 29 29 29 29 29 30
14 14 14 15 15 15 16 16 17 18 19 19 20 20 21 22 23 23 24 24 24 25 26 27 27 28 28 28 28 28 28 28 28 28 28 28 29 29 29 28 29 29 29 29
12 13 13 14 14 14 15 16 16 17 18 19 19 20 20 20 21 21 22 23 24 25 25 26 25 25 25 26 26 26 27 27 27 27 27 28 28 28 28 28 28 28 28 28
13 13 13 13 13 13 13 14 15 16 17 18 18 18 18 19 19 20 20 21 21 21 22 23 23 24 25 25 25 25 25 26 26 27 28 28 28 28 28 28 28 28 28 28
12 12 12 12 12 12 12 13 13 13 14 14 15 15 16 17 18 19 19 20 19 19 20 21 22 22 23 24 24 25 25 26 26 27 27 27 27 27 27 27 27 27 27 27
11 11 12 12 12 12 12 12 12 12 12 13 13 14 15 16 17 17 18 18 19 19 20 21 21 21 22 23 24 25 26 26 27 27 27 27 27 27 27 27 27 28 28 26
Wind_Direction
244 239 244 248 249 251 253 253 254 256 257 256 258 261 265 266 262 261 260 264 266 266 265 264 264 267 267 268 269 268 269 270 272 273 274 274 276 278 277 277 276 275 277 279
250 244 244 249 251 251 251 254 255 257 261 262 260 261 262 265 265 264 265 265 266 266 265 264 266 267 267 268 270 269 269 270 271 272 273 274 275 277 276 275 275 275 276 278
255 252 251 251 253 255 255 253 253 255 258 260 262 265 266 266 266 268 268 267 267 266 266 266 268 269 269 269 268 269 269 270 271 271 272 274 275 276 276 275 274 277 277 278
259 256 254 255 252 253 256 255 254 255 257 259 259 263 265 266 267 269 269 267 267 267 266 266 266 267 268 268 268 269 269 269 270 270 271 272 273 272 275 276 276 277 278 280
260 259 260 259 257 255 256 256 254 254 256 258 260 262 264 266 267 269 269 268 266 267 265 262 264 266 267 267 268 268 269 270 270 271 270 270 270 271 273 275 275 276 277 279
260 259 259 258 258 256 255 256 257 257 258 261 262 265 268 271 270 270 269 267 266 267 265 263 263 263 265 267 267 268 268 269 270 271 270 270 269 271 272 273 274 276 277 279
262 261 259 258 257 258 257 255 257 259 261 262 263 265 266 268 269 270 270 270 268 268 269 264 263 263 263 264 266 267 268 269 271 272 271 269 269 271 272 272 272 274 275 277
263 261 258 257 257 256 258 260 259 260 262 262 264 264 265 266 268 269 269 269 268 268 268 266 265 264 265 265 265 266 267 269 270 271 271 270 270 271 272 273 273 273 273 274
256 258 260 261 260 259 260 260 261 261 262 263 264 264 264 266 268 269 268 266 267 268 268 266 266 265 266 266 265 266 267 268 268 269 269 269 270 271 273 273 273 273 274 274
256 259 260 262 262 262 262 262 262 262 263 263 264 265 265 266 267 267 266 267 267 267 267 266 265 265 266 266 266 267 268 268 268 268 268 269 268 269 271 271 273 274 274 274
260 260 261 263 264 264 263 263 262 261 262 264 265 265 265 265 265 265 265 265 266 266 265 265 265 265 265 265 266 267 268 268 268 269 270 270 270 270 272 272 272 273 274 274
260 260 260 261 264 265 265 265 265 264 263 263 264 264 265 265 264 265 265 265 265 265 265 265 265 265 266 266 267 268 268 268 268 269 270 271 271 270 271 272 273 275 275 276
261 261 262 263 263 263 264 266 267 266 265 263 262 262 262 263 264 264 264 264 263 264 264 264 264 265 266 266 266 268 269 269 269 270 271 271 272 271 271 272 273 275 276 276
263 263 263 264 265 265 265 265 266 266 265 264 263 262 262 262 262 263 263 262 263 263 263 263 263 265 265 267 268 268 269 268 269 271 272 272 272 273 273 273 273 274 274 275
265 265 265 265 265 266 266 266 266 265 264 263 262 260 259 259 260 260 260 261 262 263 264 264 264 264 265 267 268 267 267 268 269 272 273 274 274 274 274 275 275 274 274 274
268 268 268 268 267 266 267 266 265 265 265 264 263 262 260 260 260 260 259 259 261 263 264 265 265 263 264 267 268 266 265 267 269 271 272 273 274 275 277 276 276 275 275 275
270 270 269 268 268 268 267 267 266 265 264 263 263 263 262 261 261 260 259 259 260 262 262 264 265 266 265 266 266 266 266 266 268 270 272 273 275 277 278 277 277 277 276 276
271 270 269 268 267 268 268 266 265 264 262 262 263 262 261 262 261 259 259 259 261 262 263 264 265 265 265 266 266 267 268 269 269 271 273 274 276 278 279 280 279 278 278 278
272 270 270 271 271 270 269 266 262 262 262 263 263 262 262 262 261 259 260 261 261 263 263 263 264 265 265 264 267 269 269 269 270 272 273 275 279 280 281 282 281 280 279 279
275 273 272 272 272 272 270 264 261 261 263 264 263 264 264 265 265 264 263 263 263 262 261 262 262 264 264 264 265 266 267 269 269 272 274 276 278 279 281 283 282 281 280 279
277 277 276 273 273 272 270 267 265 265 266 266 265 263 263 263 264 264 264 263 263 263 263 263 263 263 264 263 264 265 267 269 270 272 274 275 277 279 281 281 282 282 280 279
284 282 282 279 276 273 270 269 268 268 268 268 266 263 262 263 264 264 263 265 264 263 263 263 262 262 263 264 265 266 267 269 271 273 276 277 278 280 281 281 281 282 281 281
292 290 288 285 282 276 274 274 273 271 270 270 269 266 265 265 264 264 263 264 265 264 264 263 261 261 263 264 266 267 268 270 273 275 277 278 279 280 281 281 281 282 281 281
298 298 294 291 288 284 281 279 279 276 274 273 271 269 267 266 264 263 263 264 263 264 264 264 265 264 265 266 268 268 269 270 273 274 276 278 279 280 281 281 282 282 281 282
297 298 296 296 296 292 289 286 283 281 280 279 277 272 269 268 267 266 267 267 266 265 266 267 267 267 267 268 269 269 270 270 272 274 276 278 279 279 280 280 281 281 281 281
295 299 300 301 303 302 298 297 296 293 290 286 281 277 276 275 273 273 272 271 271 271 272 271 271 271 271 271 272 272 273 273 273 274 276 277 277 277 278 280 281 281 282 282
300 300 302 301 302 303 305 305 303 302 299 295 290 286 284 281 280 279 278 277 273 271 272 272 274 275 276 276 275 275 275 275 276 276 275 276 277 279 279 279 280 281 282 282
Height
5845 5848 5850 5850 5853 5854 5854 5855 5857 5857 5856 5856 5855 5854 5853 5852 5853 5853 5855 5857 5857 5858 5858 5858 5858 5858 5859 5858 5859 5859 5860 5861 5862 5862 5862 5862 5862 5862 5861 5861 5861 5861 5861 5860
5837 5840 5841 5842 5844 5846 5848 5849 5849 5849 5849 5849 5847 5846 5845 5845 5845 5845 5847 5849 5850 5850 5851 5851 5850 5849 5850 5850 5850 5851 5852 5853 5853 5854 5854 5854 5853 5853 5853 5853 5853 5853 5853 5853
5829 5831 5832 5834 5837 5838 5839 5840 5842 5842 5842 5841 5839 5838 5836 5836 5836 5837 5839 5840 5841 5842 5842 5842 5842 5842 5842 5841 5842 5843 5844 5844 5845 5845 5845 5845 5845 5845 5844 5844 5845 5844 5844 5845
5820 5822 5823 5829 5829 5830 5830 5831 5833 5832 5832 5831 5831 5829 5827 5827 5828 5829 5830 5831 5831 5832 5832 5833 5833 5833 5833 5833 5833 5834 5835 5835 5836 5836 5836 5836 5836 5836 5836 5836 5837 5836 5836 5836
5811 5812 5814 5819 5820 5820 5820 5821 5822 5821 5821 5822 5820 5819 5818 5818 5819 5820 5821 5821 5821 5821 5822 5821 5822 5823 5824 5823 5825 5826 5826 5826 5826 5826 5826 5826 5826 5827 5827 5827 5827 5827 5828 5827
5802 5803 5806 5810 5811 5809 5811 5811 5810 5810 5811 5812 5811 5811 5809 5809 5809 5809 5810 5811 5811 5811 5811 5810 5812 5814 5815 5815 5816 5817 5817 5817 5816 5816 5816 5816 5817 5818 5818 5818 5818 5818 5819 5819
5792 5793 5795 5798 5797 5799 5801 5801 5800 5800 5801 5802 5802 5801 5800 5799 5798 5799 5799 5800 5800 5800 5800 5801 5802 5804 5805 5805 5806 5806 5806 5806 5806 5806 5806 5806 5806 5807 5808 5808 5808 5809 5809 5809
5783 5783 5787 5785 5786 5787 5787 5788 5789 5790 5790 5790 5791 5791 5790 5790 5789 5789 5788 5788 5789 5791 5791 5792 5793 5794 5795 5795 5795 5796 5796 5796 5796 5796 5796 5796 5796 5797 5797 5797 5797 5798 5798 5799
5773 5774 5774 5774 5775 5775 5776 5777 5777 5778 5778 5779 5779 5779 5779 5779 5779 5778 5777 5777 5779 5780 5781 5782 5783 5784 5784 5784 5784 5785 5785 5786 5786 5786 5786 5786 5786 5787 5787 5787 5787 5787 5787 5788
5763 5764 5763 5763 5763 5764 5765 5765 5766 5766 5767 5767 5767 5768 5768 5768 5768 5768 5768 5768 5769 5770 5771 5772 5772 5773 5773 5773 5774 5774 5775 5775 5775 5776 5776 5776 5776 5775 5775 5776 5776 5777 5777 5777
5751 5753 5753 5752 5751 5751 5752 5753 5754 5754 5754 5755 5755 5755 5756 5757 5757 5758 5758 5759 5759 5759 5760 5761 5762 5762 5763 5763 5763 5764 5764 5765 5765 5765 5765 5765 5764 5765 5765 5765 5765 5766 5766 5766
5739 5740 5740 5741 5740 5740 5740 5740 5741 5741 5742 5742 5742 5743 5744 5745 5745 5746 5747 5748 5749 5749 5750 5751 5752 5752 5752 5752 5753 5753 5754 5754 5754 5755 5754 5754 5754 5755 5755 5755 5755 5755 5755 5755
5727 5728 5728 5729 5729 5729 5729 5728 5728 5728 5729 5730 5731 5732 5732 5733 5734 5735 5736 5737 5738 5738 5739 5740 5741 5741 5741 5742 5742 5742 5742 5743 5743 5744 5744 5744 5744 5744 5744 5745 5745 5745 5744 5744
5716 5716 5717 5717 5717 5717 5717 5716 5716 5717 5717 5718 5719 5720 5721 5722 5723 5724 5725 5726 5727 5728 5728 5729 5730 5730 5731 5731 5732 5732 5732 5732 5733 5733 5733 5734 5734 5733 5733 5733 5734 5733 5734 5733
5705 5705 5705 5705 5705 5705 5705 5705 5705 5706 5706 5707 5708 5709 5711 5712 5712 5713 5714 5715 5717 5718 5718 5719 5719 5720 5721 5721 5721 5721 5722 5723 5723 5723 5724 5724 5723 5723 5723 5722 5722 5722 5722 5722
5694 5694 5694 5694 5694 5694 5694 5695 5695 5696 5696 5697 5697 5699 5700 5701 5702 5703 5703 5704 5706 5707 5708 5709 5709 5710 5711 5711 5711 5711 5712 5713 5713 5713 5714 5714 5713 5713 5711 5711 5711 5710 5710 5710
5684 5684 5684 5684 5684 5684 5684 5684 5685 5686 5686 5687 5688 5689 5690 5690 5692 5693 5694 5695 5696 5697 5698 5699 5700 5701 5701 5701 5702 5701 5702 5703 5703 5703 5704 5704 5703 5702 5701 5700 5699 5699 5698 5698
5674 5674 5674 5674 5674 5675 5675 5675 5675 5676 5676 5677 5678 5679 5680 5681 5682 5683 5684 5685 5686 5688 5689 5690 5691 5691 5692 5693 5693 5692 5692 5693 5694 5695 5695 5694 5693 5692 5691 5690 5689 5688 5687 5687
5666 5666 5666 5666 5666 5666 5665 5666 5667 5667 5668 5668 5669 5670 5671 5672 5673 5674 5675 5676 5677 5679 5680 5681 5682 5682 5683 5684 5684 5684 5685 5685 5686 5685 5685 5685 5684 5683 5682 5681 5680 5679 5678 5677
5660 5659 5659 5658 5658 5658 5657 5657 5658 5659 5660 5661 5661 5662 5663 5664 5664 5665 5666 5667 5668 5670 5671 5672 5672 5673 5674 5675 5675 5676 5676 5676 5676 5676 5676 5676 5675 5674 5673 5672 5671 5670 5669 5668
5654 5653 5653 5652 5652 5652 5651 5651 5652 5653 5653 5653 5654 5654 5655 5656 5657 5657 5658 5658 5660 5661 5662 5663 5664 5664 5665 5666 5667 5667 5667 5668 5668 5667 5667 5667 5666 5665 5664 5663 5662 5661 5660 5659
5649 5649 5648 5647 5647 5646 5646 5646 5646 5646 5646 5646 5647 5647 5648 5648 5649 5649 5650 5651 5652 5653 5653 5654 5655 5656 5657 5658 5658 5658 5659 5659 5659 5659 5658 5658 5657 5656 5655 5654 5653 5652 5651 5650
5646 5645 5644 5643 5642 5642 5641 5641 5641 5640 5641 5640 5640 5640 5641 5641 5641 5642 5642 5643 5644 5645 5645 5646 5647 5647 5648 5649 5649 5650 5650 5650 5650 5650 5650 5649 5648 5647 5646 5645 5644 5643 5642 5641
5643 5642 5641 5640 5639 5638 5637 5637 5636 5636 5635 5635 5634 5634 5634 5634 5634 5634 5635 5636 5636 5636 5637 5638 5638 5639 5640 5640 5641 5641 5641 5641 5641 5641 5641 5640 5639 5638 5637 5636 5635 5634 5632 5631
5640 5639 5638 5637 5636 5634 5633 5633 5632 5631 5630 5630 5629 5629 5629 5628 5628 5628 5628 5628 5628 5629 5629 5630 5630 5631 5631 5632 5632 5632 5632 5632 5632 5632 5632 5631 5630 5629 5628 5627 5626 5624 5623 5622
5638 5637 5635 5634 5633 5631 5630 5629 5628 5627 5626 5625 5625 5624 5624 5623 5623 5623 5623 5622 5621 5622 5622 5623 5623 5623 5623 5623 5623 5623 5623 5623 5623 5623 5622 5621 5620 5619 5618 5618 5616 5615 5614 5613
5635 5634 5633 5632 5630 5629 5628 5626 5625 5624 5623 5622 5621 5620 5619 5619 5618 5618 5617 5616 5616 5616 5616 5616 5616 5616 5616 5616 5615 5615 5615 5614 5614 5613 5613 5612 5611 5610 5609 5609 5607 5606 5605 5604